Location: Newark
(40.4167°S, 176.3000°E)
Time: 12:39:03
(UTC+00:00)

N. Korean satellite - Visible Passes

Search period start: 22 September 2019 00:00
Search period end: 02 October 2019 00:00
Orbit: 455 x 509 km, 97.2° (Epoch: 21 September)

Date Brightness Start Highest point End Pass type
(mag) Time Alt. Az. Time Alt. Az. Time Alt. Az.
22 Sep 7.7 06:30:53 10° S 06:34:37 53° WSW 06:38:15 10° NNW visible
22 Sep 7.7 17:05:37 10° NNE 17:09:05 49° ESE 17:12:42 10° S visible
23 Sep 9.2 16:41:04 10° NE 16:44:01 24° ESE 16:47:03 10° SSE visible
24 Sep 9.9 07:14:50 10° SSW 07:17:16 17° WSW 07:19:41 10° WNW visible
24 Sep 10.2 16:17:23 10° E 16:19:03 13° ESE 16:20:42 10° SE visible
25 Sep 8.9 06:48:52 10° S 06:52:15 31° WSW 06:55:34 10° NW visible
25 Sep 6.7 17:23:08 10° NNE 17:26:46 87° ESE 17:30:31 10° S visible
26 Sep 8.2 16:58:12 10° NE 17:01:37 39° ESE 17:05:08 10° S visible
27 Sep 10.5 07:34:10 10° SW 07:34:47 10° WSW 07:35:25 10° WSW visible
27 Sep 9.6 16:33:49 10° ENE 16:36:34 20° ESE 16:39:22 10° SSE visible
28 Sep 9.8 07:07:03 10° SSW 07:09:50 20° WSW 07:12:33 10° WNW visible
28 Sep 10.4 16:10:47 10° ESE 16:11:36 11° ESE 16:12:26 10° SE visible
29 Sep 8.5 06:41:15 10° S 06:44:47 38° WSW 06:48:13 10° NW visible
29 Sep 7.1 17:15:37 10° NNE 17:19:15 69° ESE 17:23:00 10° S visible
30 Sep 8.7 16:50:49 10° NE 16:54:07 32° ESE 16:57:32 10° S visible
01 Oct 10.3 07:25:44 10° SW 07:27:20 12° WSW 07:28:56 10° W visible
01 Oct 9.9 16:26:38 10° ENE 16:29:05 17° ESE 16:31:34 10° SSE visible
